Погода в Лахад-Дату

Малайзия     5°02′15″N   118°20′09″E
темп.,
°C
ветер,
м/с
пор.,
м/с
влажн.,
%
обл.,
%
осадки,
мм/ч
давл.,
гПа
погр.,
м
10 мая, пн
пн1023:00+25зсз1190100 0.2 101017
02:00+24сз2292100 2.6 100880
05:00+24зсз1192100 0.0 100872
08:00+26с018896 0.0 1010169
11:00+28юз018260 2.3 1009380
14:00+31ююв115911 2.7 10061001
17:00+27вюв228386 1.1 1006213
20:00+26с229083 2.1 100975
11 мая, вт
вт1123:00+25сз229289 0.4 101078
02:00+25сз1192100 0.4 100769
05:00+24с1294100 0.0 100885
08:00+26сз1289100 0.1 1010186
11:00+29в2175100 1.1 1009609
14:00+28ююв228194 3.7 1006424
17:00+28юв237688 0.7 1006593
20:00+26вюв23845 0.8 1008344
12 мая, ср
ср1223:00+26вюв128725 2.3 1009233
02:00+25с019141 3.6 1007128
05:00+24ссз109351 1.0 100790
08:00+26ююз11898 1.9 1009118
11:00+28ююв128465 4.2 1008340
14:00+30юв346817 4.4 1005906
17:00+29вюв24736 0.0 1005501
20:00+27юв238288 0.0 1007364
13 мая, чт
чт1323:00+27ююв23839 0.0 1008389
02:00+25зюз118999 0.0 1006110
05:00+25з1193100 0.0 100675
08:00+27юз118098 0.1 1008338
11:00+28вюв227841 1.9 1008505
14:00+30юв3369100 2.8 1005938
17:00+28вюв2381100 1.2 1005375
20:00+27в2384100 1.6 1007342
14 мая, пт
пт1423:00+25с1190100 0.0 100780
02:00+25сз1193100 0.0 100675
05:00+24зсз1293100 0.1 100677
08:00+26з119094 1.3 1008152
11:00+28ююв227845 2.1 1007530
14:00+30юв3367100 2.5 1005796
17:00+29вюв2474100 0.0 1005430
20:00+27в2382100 0.0 1007303